Flag for Austria Weather past 2 weeks in Linz, Upper Austria, Austria

Now
66 °F

Sprinkles. Partly sunny.


Feels Like: 66 °F
Forecast: 48 / 67 °F
Wind: 5 mph from Northwest

Location: Linz / Hoersching-Flughafen


UV Index: 3 (Moderate)

Visibility: N/A


Pressure: 30.01 "Hg

Humidity: 52%

Dew point: 48 °F

Location of LinzLocation

Historic Weather in Linz

°F

Linz temperature yesterday

Maximum temperature yesterday: 70 °F (at 1:50 PM)
Minimum temperature yesterday: 45 °F (at 4:50 AM)
Average temperature yesterday: 58 °F

Past Weeks' High & Low Weather Summary

 TemperatureHumidityPressure
High70 °F (Apr 21, 2:50 PM)100% (Apr 10, 9:20 AM)30.36 "Hg (Apr 10, 9:20 AM)
Low30 °F (Apr 17, 3:20 AM)33% (Apr 21, 4:20 PM)29.59 "Hg (Apr 21, 6:50 PM)
Average49 °F74%30.00 "Hg
* Reported Apr 9 2:20 PM — Apr 24 2:50 PM, Linz, Weather by CustomWeather, © 2014

Note: Actual official high and low records may vary slightly from our data, if they occured in-between our weather recording intervals... More about our weather records

Advertising

Historic Weather Conditions — Data for Previous 24 hours

 ConditionsComfort  
Time TempWeatherWind HumidityBarometerVisibility
2:50 PM
Apr 24
66 °FThundershowers. Partly sunny.9 mph60%30.01 "HgN/A
2:20 PM66 °FBroken clouds.7 mph60%30.04 "HgN/A
1:50 PM64 °FSprinkles. Broken clouds.3 mph56%30.04 "HgN/A
1:20 PM64 °FBroken clouds.6 mph64%30.04 "HgN/A
12:50 PM64 °FBroken clouds.6 mph64%30.07 "HgN/A
12:20 PM63 °FPartly sunny.6 mph68%30.07 "HgN/A
11:50 AM63 °FBroken clouds.3 mph64%30.07 "HgN/A
11:20 AM63 °FBroken clouds.5 mph64%30.07 "HgN/A
10:50 AM61 °FBroken clouds.5 mph72%30.09 "HgN/A
10:20 AM59 °FPartly sunny.5 mph77%30.09 "HgN/A
9:50 AM57 °FPartly sunny.3 mph77%30.09 "HgN/A
9:20 AM55 °FPartly sunny.5 mph82%30.09 "HgN/A
8:50 AM54 °FPassing clouds.3 mph82%30.09 "HgN/A
8:20 AM52 °FSunny.3 mph94%30.09 "Hg10 mi
7:50 AM50 °FSunny.5 mph94%30.09 "Hg10 mi
7:20 AM50 °FSunny.5 mph94%30.09 "Hg10 mi
6:50 AM46 °FFog.1 mph100%30.09 "HgN/A
6:20 AM48 °FFog.3 mph94%30.07 "HgN/A
5:50 AM48 °FFog.1 mph94%30.07 "HgN/A
5:20 AM48 °FFog.5 mph100%30.07 "HgN/A
4:50 AM48 °FFog.2 mph100%30.07 "HgN/A
4:20 AM50 °FClear.2 mph94%30.07 "Hg10 mi
3:50 AM48 °FPassing clouds.5 mph100%30.07 "HgN/A
3:20 AM52 °FFog.3 mph94%30.07 "HgN/A
2:50 AM52 °FFog.2 mph94%30.07 "HgN/A
2:20 AM52 °FPassing clouds.1 mph94%30.07 "HgN/A
1:50 AM54 °FOvercast.2 mph94%30.07 "HgN/A
1:20 AM54 °FPassing clouds.5 mph94%30.07 "HgN/A
12:50 AM54 °FPassing clouds.5 mph94%30.07 "HgN/A
12:20 AM55 °FPassing clouds.2 mph88%30.07 "HgN/A
11:50 PM
Apr 23
55 °FOvercast.3 mph88%30.07 "HgN/A
11:20 PM55 °FPassing clouds.2 mph88%30.07 "HgN/A
10:50 PM57 °FScattered showers. Partly cloudy.1 mph82%30.07 "HgN/A
10:20 PM59 °FPartly cloudy.2 mph72%30.07 "HgN/A
9:50 PM61 °FRain showers. Partly cloudy.6 mph68%30.07 "HgN/A
9:20 PM61 °FSprinkles. Partly cloudy.9 mph72%30.07 "HgN/A
8:50 PM63 °FScattered showers. Broken clouds.3 mph59%30.04 "HgN/A
8:20 PM64 °FScattered showers. Scattered clouds.3 mph56%30.04 "HgN/A
7:50 PM68 °FScattered clouds.3 mph46%30.04 "HgN/A
7:20 PM68 °FScattered clouds.1 mph43%30.04 "HgN/A
6:50 PM70 °FScattered clouds.2 mph40%30.04 "HgN/A
6:20 PM68 °FPassing clouds.6 mph46%30.04 "HgN/A
5:50 PM68 °FScattered clouds.7 mph46%30.04 "HgN/A
5:20 PM68 °FScattered clouds.9 mph46%30.04 "HgN/A
4:50 PM68 °FPassing clouds.10 mph46%30.04 "HgN/A
4:20 PM68 °FPassing clouds.10 mph46%30.04 "HgN/A
Weather by CustomWeather, © 2014

See weather overview